sat.trackr.live / text

‹ back to catalog

STARLINK-35781

NORAD 67110 · 2025-299J

PAYLOAD ACTIVE UNKNOWN

§ Identity

Operator
Country
US
Launch date
2025-12-15
Launch site
AFETR
Launch vehicle
Mass (kg)
RCS (m²)

Purposes: comms

External: N2YO · Heavens-Above · Gunter

§ Orbital elements

Epoch: 2026-05-25T03:07:53.679360Z

Period
94.27 min
Inclination
43.0009°
Eccentricity
0.0001469
Mean motion
15.27590979 rev/d
Perigee alt
482.0 km
Apogee alt
484.0 km
Semi-major
6,861.2 km
B*
5.7430e-4
RAAN
97.5723°
Arg perigee
263.8142°
Mean anomaly
96.2542°
Rev number
2,480

§ Raw data

STARLINK-357811 67110U 25299J   26145.13048240  .00015580  00000+0  57430-3 0  99922 67110  43.0009  97.5723 0001469 263.8142  96.2542 15.27590979 24808

JSON: /api/v1/satellites/67110 · /tle

For live sub-satellite position, see the globe view (requires WebGL).

§ Visibility from observer

Set your observer location to see the next 7 days of passes ≥ 10°. The values pass through the URL so the page stays shareable.

No JS? Fill the form by hand. The geolocation button needs JavaScript.